Location: Alafon
(8.4500°N, 4.2333°E)
Time: 00:20:27
(UTC+00:00)

deb Explorer IX - Pass Details

Date: 26 July 2021
Orbit: 545 x 1091 km, 38.8° (Epoch: 19 September)

Event Time Altitude Azimuth Distance (km) Brightness Sun altitude
Rises 21:35:39 0° 318° (NW) 3,876 ? -46.9°
Reaches altitude 10° 21:38:29 10° 322° (NW) 2,929 ? -47.5°
Enters shadow 21:40:24 19° 328° (NNW) 2,318 ? -47.8°
Maximum altitude 21:45:34 54° 38° (NE) 1,270 - -48.8°
Drops below altitude 10° 21:52:14 10° 115° (ESE) 2,774 - -50.0°
Sets 21:54:51 0° 119° (ESE) 3,658 - -50.4°
